This demonstration page uses our WeatherBlox Daily Observations layout. Learn more.

Left ArrowRight Arrow

39.08367, -84.50855

Hourly Observations for March 15, 2019

Temp ( °F °C ) Dew Point ( °F °C ) Humidity (%) Winds ( mph kmh ) Pressure ( in mb ) Visibility ( mi km ) Precip ( " mm )
12:53 am 00:53 Clear 55 12.8 41 5 59 59 W 14 22 N/A 10 16 N/A
1:53 am 01:53 Clear 52 11.1 39 3.9 61 61 W 16 26 N/A 10 16 N/A
2:53 am 02:53 Clear 50 10 36 2.2 59 59 WSW 13 20 N/A 10 16 N/A
3:53 am 03:53 Clear 48 8.9 36 2.2 63 63 WSW 16 26 N/A 10 16 N/A
4:53 am 04:53 Clear 47 8.3 34 1.1 61 61 WSW 24 39 N/A 10 16 N/A
5:53 am 05:53 Clear 46 7.8 34 1.1 63 63 SW 10 17 N/A 10 16 N/A
6:53 am 06:53 Clear 44 6.7 34 1.1 68 68 SW 12 19 29.93 1013 10 16 N/A
7:53 am 07:53 Partly Cloudy 44 6.7 34 1.1 68 68 SW 12 19 29.93 1014 10 16 N/A
8:53 am 08:53 Cloudy 46 7.8 34 1.1 63 63 SSW 10 17 29.95 1014 10 16 N/A
9:53 am 09:53 Cloudy 46 7.8 35 1.7 66 66 WSW 16 26 29.94 1014 10 16 N/A
10:53 am 10:53 Cloudy 47 8.3 36 2.2 66 66 WSW 14 22 29.95 1014 10 16 N/A
11:53 am 11:53 Cloudy N/A N/A N/A undefined N/A N/A N/A N/A
12:53 pm 12:53 Cloudy 45 7.2 34 1.1 66 66 WSW 23 37 30.00 1016 10 16 N/A
1:01 pm 13:01 Cloudy 43 6.1 34 1.1 71 71 WSW 23 37 30.03 1017 10 16 N/A
1:53 pm 13:53 Cloudy 43 6.1 34 1.1 71 71 WSW 23 37 30.03 1017 10 16 N/A
1:56 pm 13:56 Cloudy 43 6.1 34 1.1 71 71 WSW 23 37 30.04 1017 10 16 N/A
2:53 pm 14:53 Cloudy 43 6.1 34 1.1 71 71 WSW 14 22 30.03 1017 10 16 N/A
3:53 pm 15:53 Cloudy 41 5 36 2.2 82 82 WSW 17 28 30.05 1018 10 16 N/A
4:53 pm 16:53 Cloudy 41 5 36 2.2 82 82 WSW 17 28 30.08 1019 10 16 N/A
5:53 pm 17:53 Cloudy 39 3.9 34 1.1 82 82 W 17 28 30.11 1020 10 16 N/A
6:00 pm 18:00 Cloudy 39 3.9 34 1.1 82 82 WSW 17 28 30.13 1020 10 16 N/A
6:53 pm 18:53 Cloudy with Light Rain 39 3.9 34 1.1 82 82 WSW 17 28 30.14 1021 10 16 N/A
7:00 pm 19:00 Cloudy with Light Rain 39 3.9 34 1.1 82 82 WSW 17 28 30.16 1021 10 16 N/A
7:53 pm 19:53 Cloudy with Light Rain 39 3.9 34 1.1 82 82 WSW 17 28 30.16 1022 10 16 N/A
8:53 pm 20:53 Cloudy 39 3.9 30 -1.1 70 70 WSW 18 30 30.20 1023 10 16 N/A
9:53 pm 21:53 Cloudy 39 3.9 28 -2.2 65 65 W 21 33 30.25 1024 10 16 N/A
10:53 pm 22:53 Cloudy 37 2.8 28 -2.2 70 70 W 18 30 30.27 1025 10 16 N/A
11:53 pm 23:53 Mostly Cloudy 37 2.8 28 -2.2 70 70 WSW 14 22 30.28 1025 10 16 N/A

Powered by AerisWeather